DF9PV-5 Weather Reports


Display with metric or nautical units.
time (UTC)temp
F
wind
direction
speed
MPH
gust
MPH
rain 1hr
in
rain 24hr
in
rain mn
in
humidity
%
barometer
mb
20260507064522 50 337 0.0 3.0 0.00 0.00 0.00 85 1013.5
20260507064018 50 0.0 0.0 0.00 0.00 0.00 85 1013.4
20260507063530 49 0.0 0.0 0.00 0.00 0.00 86 1013.4
20260507063026 49 0.0 0.0 0.00 0.00 0.00 85 1013.4
20260507062545 49 0.0 0.0 0.00 0.00 0.00 85 1013.4
20260507062018 49 329 1.0 5.0 0.00 0.00 0.00 84 1013.4
20260507061530 49 328 0.0 3.0 0.00 0.00 0.00 83 1013.3
20260507061026 49 346 1.0 3.0 0.00 0.00 0.00 84 1013.3
20260507060542 49 335 2.0 8.0 0.00 0.00 0.00 85 1013.3
20260507060039 49 0.0 0.0 0.00 0.00 0.00 85 1013.2
20260507055530 49 331 0.0 5.0 0.00 0.00 0.00 85 1013.1
20260507055026 48 0.0 0.0 0.00 0.00 0.00 85 1013.1
20260507054522 48 332 0.0 3.0 0.00 0.00 0.00 85 1012.9
20260507054034 48 328 0.0 5.0 0.00 0.00 0.00 85 1012.8
20260507053531 48 336 0.0 5.0 0.00 0.00 0.00 85 1012.8
20260507053026 48 334 1.0 5.0 0.00 0.00 0.00 85 1012.7
20260507052538 48 0.0 0.0 0.00 0.00 0.00 86 1012.7
20260507052018 48 326 0.0 8.0 0.00 0.00 0.00 86 1012.6
20260507051530 48 0.0 0.0 0.00 0.01 0.00 86 1012.5
20260507051026 48 0.0 0.0 0.00 0.01 0.00 86 1012.4
20260507050538 48 339 1.0 5.0 0.00 0.01 0.00 86 1012.3
20260507050018 48 0.0 0.0 0.00 0.01 0.00 85 1012.2
20260507045547 48 313 1.0 8.0 0.00 0.01 0.00 86 1012.2
20260507045029 48 325 0.0 3.0 0.00 0.01 0.00 86 1012.1
20260507044522 48 334 0.0 3.0 0.00 0.01 0.00 86 1012.1
20260507044018 48 9 0.0 3.0 0.00 0.01 0.00 86 1012.1
20260507043530 48 338 1.0 8.0 0.00 0.01 0.00 86 1012.1
20260507043029 48 342 1.0 8.0 0.00 0.02 0.00 86 1012.0
20260507042523 48 0.0 0.0 0.00 0.02 0.00 87 1012.0
20260507042018 48 340 0.0 3.0 0.00 0.04 0.00 87 1011.9
20260507041531 48 0.0 0.0 0.00 0.05 0.00 87 1011.9
20260507041043 48 335 0.0 3.0 0.00 0.06 0.00 87 1011.9
20260507040538 48 326 0.0 5.0 0.00 0.07 0.00 87 1011.8
20260507040019 48 339 0.0 3.0 0.00 0.07 0.00 88 1011.7
20260507035554 48 335 0.0 3.0 0.00 0.07 0.00 87 1011.7
20260507035027 48 0.0 0.0 0.00 0.07 0.00 88 1011.7
20260507034522 48 0.0 0.0 0.00 0.07 0.00 87 1011.7
20260507034019 48 333 0.0 3.0 0.00 0.07 0.00 87 1011.6
20260507033531 48 0.0 0.0 0.00 0.07 0.00 86 1011.6
20260507033110 48 333 1.0 5.0 0.00 0.07 0.00 86 1011.6
20260507032522 48 326 1.0 5.0 0.00 0.07 0.00 87 1011.5
20260507032034 48 338 0.0 3.0 0.00 0.07 0.00 87 1011.5
20260507031547 48 337 1.0 8.0 0.00 0.07 0.00 87 1011.5
20260507031029 48 333 0.0 5.0 0.00 0.07 0.00 87 1011.5
20260507030538 48 342 0.0 3.0 0.00 0.07 0.00 87 1011.5
20260507030022 48 337 1.0 8.0 0.00 0.07 0.00 87 1011.5
20260507025551 48 332 0.0 3.0 0.00 0.08 0.00 88 1011.4
20260507025047 48 341 0.0 5.0 0.00 0.08 0.00 87 1011.4
20260507024545 48 332 1.0 8.0 0.00 0.09 0.00 87 1011.4
20260507024019 48 329 2.0 8.0 0.00 0.11 0.00 87 1011.5
20260507023531 48 329 0.0 5.0 0.00 0.11 0.00 87 1011.5
20260507023026 48 353 0.0 3.0 0.00 0.11 0.00 88 1011.4
20260507022539 48 339 1.0 5.0 0.00 0.12 0.00 87 1011.3
20260507022042 48 343 1.0 5.0 0.00 0.12 0.00 88 1011.3
20260507021546 48 334 0.0 5.0 0.00 0.12 0.00 88 1011.3
20260507021050 48 329 0.0 5.0 0.00 0.12 0.00 88 1011.2
20260507020523 48 316 0.0 5.0 0.00 0.12 0.00 88 1011.2
20260507020019 48 330 0.0 5.0 0.00 0.12 0.00 88 1011.2
20260507015531 48 331 0.0 5.0 0.00 0.12 0.00 88 1011.1
20260507015027 48 340 0.0 3.0 0.00 0.12 0.00 88 1011.1
20260507014523 48 325 1.0 8.0 0.00 0.12 0.00 87 1011.1
20260507014019 48 0.0 0.0 0.00 0.12 0.00 87 1011.2
20260507013551 48 329 1.0 5.0 0.00 0.12 0.00 87 1011.1
20260507013030 48 327 1.0 5.0 0.00 0.12 0.00 87 1011.0
20260507012539 48 338 1.0 5.0 0.00 0.12 0.00 87 1011.1
20260507012019 48 335 1.0 5.0 0.00 0.12 0.00 87 1011.0
20260507011534 48 332 0.0 3.0 0.00 0.13 0.00 87 1011.0
20260507011127 48 319 1.0 10.0 0.00 0.13 0.00 87 1010.9
20260507010522 49 338 0.0 3.0 0.00 0.13 0.00 88 1010.9
20260507010035 49 337 0.0 3.0 0.00 0.13 0.00 88 1010.9
20260507005551 49 333 0.0 3.0 0.00 0.13 0.00 87 1010.9
20260507005027 49 334 0.0 3.0 0.00 0.13 0.00 87 1010.8
20260507004523 49 329 1.0 5.0 0.00 0.13 0.00 86 1010.8
20260507004035 49 343 1.0 10.0 0.00 0.13 0.00 86 1010.8
20260507003531 49 328 0.0 3.0 0.00 0.13 0.00 87 1010.7
20260507003026 49 0.0 0.0 0.00 0.13 0.00 87 1010.6
20260507002559 49 0 1.0 5.0 0.00 0.13 0.00 86 1010.6
20260507002019 49 332 0.0 3.0 0.00 0.13 0.00 87 1010.6
20260507001531 49 0.0 0.0 0.00 0.13 0.00 86 1010.6
20260507001050 49 344 0.0 3.0 0.00 0.13 0.00 86 1010.6
20260507000523 49 337 1.0 3.0 0.00 0.13 0.00 86 1010.5
20260507000023 49 342 0.0 5.0 0.00 0.13 0.00 87 1010.5
20260506235531 49 0.0 0.0 0.00 0.13 0.00 87 1010.5
20260506235047 49 347 0.0 3.0 0.00 0.14 0.00 87 1010.5
20260506234523 49 326 0.0 3.0 0.00 0.14 0.00 87 1010.5
20260506234039 49 0.0 0.0 0.00 0.14 0.00 87 1010.4
20260506233531 49 0.0 0.0 0.00 0.14 0.00 88 1010.4
20260506233107 49 0.0 0.0 0.00 0.14 0.00 87 1010.5
20260506232523 49 334 1.0 8.0 0.00 0.15 0.00 87 1010.4
20260506232019 49 335 0.0 3.0 0.00 0.15 0.00 88 1010.5
20260506231531 49 335 0.0 3.0 0.00 0.15 0.00 88 1010.4
20260506231027 49 0.0 0.0 0.00 0.15 0.00 87 1010.4
20260506230526 49 0.0 0.0 0.00 0.15 0.00 87 1010.4
20260506230019 49 332 0.0 3.0 0.00 0.15 0.00 87 1010.3
20260506225530 49 0.0 0.0 0.00 0.15 0.00 87 1010.3
20260506225027 49 322 0.0 3.0 0.00 0.15 0.00 87 1010.2
20260506224523 49 342 0.0 3.0 0.00 0.15 0.00 87 1010.3
20260506224042 49 0.0 0.0 0.00 0.15 0.00 87 1010.3
20260506223531 49 0.0 0.0 0.00 0.15 0.00 88 1010.2
20260506223050 49 0.0 0.0 0.00 0.15 0.00 88 1010.2
20260506222523 49 0.0 0.0 0.00 0.15 0.00 88 1010.2
20260506222019 49 0.0 0.0 0.00 0.15 0.00 88 1010.1
20260506221531 49 0.0 0.0 0.00 0.15 0.00 88 1010.0
20260506221027 49 0.0 0.0 0.00 0.15 0.00 87 1010.0
20260506220523 49 0.0 0.0 0.00 0.15 0.00 87 1010.0
20260506220019 49 338 0.0 3.0 0.00 0.15 0.00 87 1010.0
20260506215531 49 317 2.0 8.0 0.00 0.15 0.15 87 1010.0
20260506215030 49 0.0 0.0 0.00 0.15 0.15 87 1009.9
20260506214523 49 334 0.0 3.0 0.00 0.15 0.15 87 1010.0
20260506214019 49 0.0 0.0 0.00 0.17 0.15 87 1009.9
20260506213531 49 344 0.0 3.0 0.00 0.18 0.15 87 1009.9
20260506213027 49 348 0.0 3.0 0.00 0.20 0.15 87 1009.9
20260506212539 49 305 0.0 5.0 0.00 0.20 0.15 87 1009.9
20260506212019 49 326 2.0 8.0 0.00 0.20 0.15 88 1009.8
20260506211531 49 338 0.0 3.0 0.00 0.20 0.15 89 1009.8
20260506211027 49 0.0 0.0 0.00 0.20 0.15 89 1009.7
20260506210523 49 0.0 0.0 0.00 0.20 0.15 89 1009.7
20260506205531 49 0.0 0.0 0.00 0.20 0.15 90 1009.6
20260506205123 49 0.0 0.0 0.00 0.21 0.15 91 1009.6
20260506204522 49 0.0 0.0 0.00 0.21 0.15 90 1009.5
20260506204022 49 0.0 0.0 0.00 0.21 0.15 90 1009.5
20260506203551 49 0.0 0.0 0.00 0.21 0.15 90 1009.5
20260506203027 49 0.0 0.0 0.00 0.22 0.15 89 1009.5
20260506202523 49 0.0 0.0 0.00 0.22 0.15 89 1009.5
20260506202055 49 0.0 0.0 0.00 0.22 0.15 89 1009.5
20260506201531 49 0.0 0.0 0.00 0.22 0.15 89 1009.4
20260506201047 49 340 0.0 5.0 0.00 0.22 0.15 89 1009.5
20260506200523 49 0.0 0.0 0.00 0.22 0.15 89 1009.4
20260506200019 49 338 1.0 5.0 0.00 0.22 0.15 89 1009.4
20260506195531 49 338 0.0 3.0 0.00 0.22 0.15 89 1009.4
20260506195047 49 342 0.0 3.0 0.00 0.22 0.15 89 1009.3
20260506194523 49 338 0.0 3.0 0.00 0.22 0.15 89 1009.2
20260506194019 49 339 0.0 3.0 0.00 0.22 0.15 89 1009.2
20260506193531 49 334 0.0 3.0 0.00 0.24 0.15 89 1009.1
20260506193027 49 317 1.0 5.0 0.00 0.24 0.15 88 1009.1
20260506192523 49 337 0.0 8.0 0.00 0.24 0.15 88 1008.9
20260506192039 49 328 1.0 8.0 0.00 0.25 0.15 88 1008.9
20260506191531 49 340 0.0 5.0 0.00 0.27 0.15 88 1008.7
20260506191027 49 328 0.0 5.0 0.00 0.28 0.15 88 1008.8
20260506190523 49 337 0.0 3.0 0.00 0.28 0.15 88 1008.7
20260506190022 49 342 0.0 5.0 0.00 0.28 0.15 88 1008.7
20260506185531 49 341 0.0 3.0 0.00 0.28 0.15 88 1008.5
20260506185043 49 328 1.0 10.0 0.00 0.31 0.15 87 1008.5
20260506184523 49 339 1.0 10.0 0.00 0.34 0.15 87 1008.5
20260506184039 49 344 0.0 3.0 0.00 0.34 0.15 87 1008.5
20260506183531 49 335 1.0 5.0 0.00 0.35 0.15 87 1008.5
20260506183027 49 330 0.0 5.0 0.00 0.35 0.15 87 1008.4
20260506182526 49 332 0.0 5.0 0.00 0.35 0.15 87 1008.2
20260506182039 50 347 0.0 3.0 0.00 0.35 0.15 87 1008.2
20260506181603 50 324 1.0 10.0 0.00 0.37 0.15 86 1008.2
20260506181027 50 334 2.0 8.0 0.00 0.37 0.15 86 1008.0
20260506180523 50 338 1.0 8.0 0.00 0.38 0.15 86 1008.1
20260506180019 50 344 0.0 3.0 0.00 0.38 0.15 86 1008.0
20260506175531 50 343 0.0 5.0 0.00 0.39 0.15 87 1007.9
20260506175027 50 340 0.0 5.0 0.00 0.39 0.15 87 1008.0
20260506174523 50 332 1.0 8.0 0.00 0.39 0.15 87 1008.0
20260506174035 50 342 1.0 10.0 0.00 0.40 0.15 86 1007.9
20260506173631 50 324 1.0 10.0 0.00 0.40 0.15 87 1008.0
20260506173027 51 337 1.0 5.0 0.00 0.40 0.15 86 1007.9
20260506172523 51 296 0.0 8.0 0.00 0.41 0.15 85 1007.9
20260506172019 51 332 1.0 5.0 0.00 0.41 0.15 85 1008.0
20260506171534 51 323 1.0 8.0 0.00 0.41 0.15 85 1008.0
20260506171047 51 336 1.0 8.0 0.00 0.41 0.15 85 1007.9
20260506170523 51 0.0 0.0 0.00 0.41 0.15 85 1008.0
20260506170019 51 0.0 0.0 0.00 0.43 0.15 85 1007.9
20260506165551 51 326 1.0 13.0 0.00 0.43 0.15 85 1007.8
20260506165027 51 323 2.0 10.0 0.00 0.43 0.15 84 1007.7
20260506164523 52 313 0.0 5.0 0.00 0.44 0.15 85 1007.6
20260506164019 52 0.0 0.0 0.00 0.44 0.15 84 1007.6
20260506163531 52 339 1.0 5.0 0.00 0.44 0.15 84 1007.5
20260506163048 52 334 1.0 5.0 0.00 0.44 0.15 84 1007.5
20260506162526 52 330 2.0 10.0 0.00 0.44 0.15 84 1007.4
20260506162019 52 335 0.0 3.0 0.00 0.44 0.15 83 1007.5
20260506161535 52 323 1.0 5.0 0.00 0.45 0.15 84 1007.4
20260506161027 52 340 1.0 5.0 0.00 0.45 0.15 84 1007.4
20260506160524 52 335 0.0 3.0 0.00 0.45 0.15 84 1007.4
20260506160022 52 345 0.0 5.0 0.00 0.45 0.15 83 1007.4
20260506155612 52 336 1.0 5.0 0.00 0.45 0.15 85 1007.4
20260506155048 52 359 0.0 3.0 0.00 0.45 0.15 85 1007.3
20260506154540 53 353 0.0 3.0 0.00 0.45 0.15 84 1007.3
20260506154100 53 342 0.0 3.0 0.00 0.46 0.15 84 1007.2
20260506153615 53 331 1.0 8.0 0.00 0.46 0.15 83 1007.2
20260506153103 53 335 1.0 8.0 0.00 0.46 0.15 83 1007.1
20260506152527 53 335 1.0 5.0 0.00 0.46 0.15 83 1007.0
20260506152019 53 327 1.0 10.0 0.00 0.47 0.15 84 1007.0
20260506151531 53 332 2.0 8.0 0.00 0.48 0.15 84 1007.0
20260506151027 53 343 1.0 5.0 0.00 0.51 0.15 84 1006.9
20260506150524 53 330 1.0 5.0 0.00 0.52 0.15 84 1006.8
20260506150022 53 331 2.0 8.0 0.00 0.54 0.15 84 1006.8
20260506145552 53 335 2.0 15.0 0.00 0.56 0.15 84 1006.8
20260506145047 53 333 1.0 8.0 0.00 0.57 0.15 84 1006.8
20260506144527 53 343 1.0 5.0 0.00 0.59 0.15 85 1006.8
20260506144020 53 338 1.0 8.0 0.00 0.60 0.15 86 1006.8
20260506143552 53 327 1.0 10.0 0.00 0.61 0.15 85 1006.7
20260506143028 53 346 0.0 5.0 0.00 0.63 0.15 85 1006.8
20260506142620 53 342 0.0 5.0 0.00 0.63 0.15 85 1006.7
20260506142019 54 343 1.0 13.0 0.00 0.64 0.15 84 1006.7
20260506141532 54 325 2.0 10.0 0.00 0.64 0.15 84 1006.7
20260506141043 54 326 1.0 8.0 0.00 0.64 0.15 84 1006.6
20260506140524 54 340 2.0 10.0 0.00 0.64 0.15 84 1006.6
20260506140055 54 346 1.0 10.0 0.00 0.64 0.15 85 1006.5
20260506135531 54 328 2.0 10.0 0.00 0.64 0.15 85 1006.4
20260506135028 54 339 3.0 15.0 0.00 0.64 0.15 84 1006.5
20260506134544 55 342 0.0 5.0 0.00 0.64 0.15 83 1006.5
20260506134020 55 338 1.0 10.0 0.00 0.64 0.15 82 1006.5
20260506133531 55 334 2.0 10.0 0.00 0.64 0.15 82 1006.4
20260506133108 55 32 0.0 3.0 0.00 0.64 0.15 83 1006.4
20260506132523 55 338 2.0 13.0 0.00 0.66 0.15 82 1006.4
20260506132040 55 342 1.0 13.0 0.00 0.67 0.15 84 1006.3
20260506131532 55 341 2.0 13.0 0.00 0.69 0.15 85 1006.2
20260506131031 55 336 2.0 10.0 0.00 0.71 0.15 84 1006.2
20260506130524 55 334 1.0 13.0 0.00 0.72 0.15 84 1006.2
20260506130019 56 348 1.0 5.0 0.00 0.72 0.15 83 1006.2
20260506125532 56 313 2.0 13.0 0.00 0.72 0.15 82 1006.2
20260506125028 56 337 2.0 10.0 0.00 0.72 0.15 83 1006.1
20260506124524 56 334 1.0 8.0 0.00 0.72 0.15 83 1006.1
20260506124019 56 325 1.0 13.0 0.00 0.72 0.15 83 1006.1
20260506123532 56 332 1.0 8.0 0.00 0.72 0.15 84 1006.1
20260506123031 56 310 2.0 10.0 0.00 0.72 0.15 84 1006.1
20260506122524 56 330 1.0 5.0 0.00 0.72 0.15 85 1006.1
20260506122019 56 333 0.0 5.0 0.00 0.72 0.15 84 1006.0
20260506121532 56 336 1.0 5.0 0.00 0.72 0.15 84 1006.0
20260506121028 56 343 2.0 13.0 0.00 0.72 0.15 85 1006.0
20260506120524 56 336 1.0 8.0 0.00 0.72 0.15 86 1005.9
20260506120023 55 353 0.0 5.0 0.00 0.72 0.15 87 1005.9
20260506115532 55 327 1.0 8.0 0.00 0.72 0.15 87 1005.9
20260506115028 55 339 0.0 5.0 0.00 0.72 0.15 87 1006.0
20260506114547 55 326 3.0 10.0 0.00 0.72 0.15 86 1005.9
20260506114020 55 333 1.0 10.0 0.00 0.72 0.15 86 1005.9
20260506113532 55 333 1.0 8.0 0.00 0.72 0.15 86 1005.9
20260506113051 55 325 1.0 8.0 0.00 0.72 0.15 86 1005.9
20260506112524 56 321 0.0 5.0 0.00 0.72 0.15 85 1005.8
20260506112020 56 0.0 0.0 0.00 0.72 0.15 85 1005.8
20260506111612 56 337 0.0 5.0 0.00 0.72 0.15 85 1005.7
20260506111028 56 336 0.0 5.0 0.00 0.72 0.15 85 1005.7
20260506110527 56 343 1.0 8.0 0.00 0.72 0.15 85 1005.7
20260506110020 56 336 1.0 5.0 0.00 0.72 0.15 85 1005.7
20260506105532 56 344 0.0 3.0 0.00 0.72 0.15 85 1005.7
20260506105028 56 341 0.0 3.0 0.00 0.72 0.15 86 1005.8
20260506104524 56 325 1.0 5.0 0.00 0.72 0.15 86 1005.7
20260506104020 56 328 0.0 5.0 0.00 0.72 0.15 87 1005.7
20260506103532 55 326 0.0 5.0 0.00 0.72 0.15 88 1005.7
20260506103028 55 0.0 0.0 0.00 0.72 0.15 88 1005.8
20260506102540 56 333 0.0 5.0 0.00 0.72 0.15 89 1005.7
20260506102020 55 343 0.0 5.0 0.00 0.72 0.15 89 1005.7
20260506101532 55 0.0 0.0 0.00 0.72 0.15 89 1005.6
20260506101028 55 330 0.0 5.0 0.00 0.72 0.15 88 1005.6
20260506100524 55 330 0.0 3.0 0.00 0.72 0.15 87 1005.6
20260506100020 55 337 0.0 5.0 0.00 0.72 0.15 88 1005.6
20260506095532 55 336 1.0 8.0 0.00 0.72 0.15 89 1005.5
20260506095028 55 0.0 0.0 0.00 0.72 0.15 88 1005.4
20260506094524 55 331 0.0 5.0 0.00 0.72 0.15 88 1005.4
20260506094100 55 0.0 0.0 0.00 0.72 0.15 88 1005.4
20260506093532 55 0.0 0.0 0.00 0.72 0.15 88 1005.3
20260506093048 55 0.0 0.0 0.00 0.72 0.15 89 1005.3
20260506092544 55 346 0.0 3.0 0.00 0.72 0.15 89 1005.3
20260506092020 55 0.0 0.0 0.00 0.72 0.15 89 1005.3
20260506091532 55 331 0.0 3.0 0.00 0.72 0.15 88 1005.2
20260506091028 55 0.0 0.0 0.00 0.72 0.15 89 1005.3
20260506090524 55 0.0 0.0 0.00 0.72 0.15 89 1005.3
20260506090020 54 335 0.0 3.0 0.00 0.72 0.15 88 1005.3
20260506085532 54 341 0.0 3.0 0.00 0.72 0.15 88 1005.3
20260506085048 54 335 0.0 3.0 0.00 0.72 0.15 89 1005.2
20260506084524 54 336 1.0 8.0 0.00 0.72 0.15 88 1005.2
20260506084020 54 0.0 0.0 0.00 0.72 0.15 90 1005.1
20260506083532 54 318 0.0 5.0 0.00 0.72 0.15 88 1005.1
20260506083029 54 337 0.0 3.0 0.00 0.72 0.15 89 1005.0
20260506082644 55 335 1.0 5.0 0.00 0.72 0.15 89 1004.9
20260506082020 54 336 0.0 3.0 0.00 0.72 0.15 89 1005.0
20260506081552 55 334 1.0 5.0 0.00 0.72 0.15 89 1005.0
20260506081028 55 342 0.0 5.0 0.00 0.72 0.15 89 1005.0
20260506080524 55 0.0 0.0 0.00 0.72 0.15 89 1005.0
20260506073028 54 0.0 0.0 0.00 0.72 0.15 91 1005.0
20260506072527 54 0.0 0.0 0.00 0.72 0.15 91 1005.0
20260506072020 54 0.0 0.0 0.00 0.72 0.15 91 1005.0
20260506071532 53 0.0 0.0 0.00 0.72 0.15 91 1004.9
20260506071031 53 0.0 0.0 0.00 0.72 0.15 90 1005.0
20260506070524 53 0.0 0.0 0.00 0.72 0.15 91 1004.9